AirNav   Air Wisconsin pilot careers
 
 1025 users online  

9N2 Philadelphia Seaplane Base
Essington, Pennsylvania, USA

GOING TO ESSINGTON?


FAA INFORMATION EFFECTIVE 28 MARCH 2019

Location

FAA Identifier: 9N2
Lat/Long: 39-51-32.4060N / 075-17-58.6710W
39-51.540100N / 075-17.977850W
39.8590017 / -75.2996308
(estimated)
Elevation: 0 ft. / 0 m (estimated)
Variation: 11W (1985)
From city: 1 mile S of ESSINGTON, PA
Time zone: UTC -4 (UTC -5 during Standard Time)
Zip code: 19029

Seaplane Base Operations

Seaplane Base use: Open to the public
Activation date: 02/1946
Control tower: no
ARTCC: NEW YORK CENTER
FSS: WILLIAMSPORT FLIGHT SERVICE STATION
NOTAMs facility: IPT (NOTAM-D service available)
Attendance: UNATTENDED
Pattern altitude: 300 ft. MSL
CHECK PHL TCA CHART FOR LNDG AREA.
Wind indicator: yes
Segmented circle: no

Seaplane Base Communications

CTAF: 122.9
WX ASOS at PHL (2.8 nm E): PHONE 215-492-9617
WX AWOS-3T at OQN (15 nm NW): 121.4 ((610) 692-6190)
WX AWOS-3 at LOM (17 nm N): 118.925 (215-646-1068)
WX ASOS at ILG (18 nm SW): PHONE 302-328-1536
WX ASOS at PNE (19 nm NE): PHONE 215-677-0146

Nearby radio navigation aids

VOR radial/distance  VOR name  Freq  Var
OODr011/13.4WOODSTOWN VORTAC112.8010W
MXEr111/17.5MODENA VORTAC113.2009W
DQOr063/17.9DUPONT VORTAC114.0010W
VCNr331/24.6CEDAR LAKE VOR/DME115.2010W
PTWr160/24.9POTTSTOWN VORTAC116.5009W
ARDr227/29.7YARDLEY VOR/DME108.2010W
GXUr266/33.6MC GUIRE VORTAC110.6012W
ENOr024/38.9SMYRNA VORTAC111.4009W

 
NDB name  Hdg/Dist  Freq  Var  ID
AMBLER194/16.027512WING .. -. --.
RAINBOW355/27.536311WRNB .-. -. -...

Seaplane Base Services

Runway Information

Runway 11W/29W

Dimensions: 9100 x 250 ft. / 2774 x 76 m
Surface: water
RUNWAY 11W  RUNWAY 29W
Traffic pattern: rightleft

Seaplane Base Ownership and Management from official FAA records

Ownership: Publicly-owned
Owner: TOWNSHIP OF TINICUM
629 N GOVERNOR PRINTZ BLVD
ESSINGTON, PA 19029
Phone 610-521-3530
Manager: DAVID SCHREIBER
97 WANNAMAKER AVE
ESSINGTON, PA 19029
Phone 610-521-3530

Seaplane Base Operational Statistics

Aircraft operations: 12/year *
100% transient general aviation
* for 12-month period ending 17 April 2018

Additional Remarks

TSNT TFC CTC PHL APCH CTL FOR TFC ADZYS.
CALL 610-521-3530 PRIOR TO ARR.
NO NIGHT OPS.
FOR CD CTC PHL APCH AT (800) 354-9884.

Instrument Procedures

There are no published instrument procedures at 9N2.

Some nearby airports with instrument procedures:

KPHL - Philadelphia International Airport (3 nm E)
7N7 - Spitfire Aerodrome (9 nm SW)
KOQN - Brandywine Airport (15 nm NW)
17N - Cross Keys Airport (15 nm SE)
KLOM - Wings Field Airport (17 nm N)
19N - Camden County Airport (17 nm E)
KILG - New Castle Airport (18 nm SW)
KPNE - Northeast Philadelphia Airport (19 nm NE)
 
Loc | Ops | Rwys | IFR | FBO | Links
Com | Nav | Svcs | Stats | Notes
Area around 9N2 (Philadelphia Seaplane Base)
 
Road maps at: MapQuest Bing Google
 
Aerial photo
WARNING: Photo may not be current or correct
Aerial photo of 9N2 (Philadelphia Seaplane Base)
Do you have a better or more recent aerial photo of Philadelphia Seaplane Base that you would like to share? If so, please send us your photo.

 
Sectional chart

 
Airport distance calculator
Flying to Philadelphia Seaplane Base? Find the distance to fly.

From to 9N2

Sunrise and sunset
Times for 20-Apr-2019
 Local
(UTC-4)
 Zulu
(UTC)
Morning civil twilight05:4909:49
Sunrise06:1710:17
Sunset19:4323:43
Evening civil twilight20:1100:11

Current date and time
Zulu (UTC)  20-Apr-2019 15:51:43
Local (UTC-4)  20-Apr-2019 11:51:43
 
METAR
KPHL 
3nm E 
201454Z 16016G29KT 10SM BKN012 OVC023 19/17 A2968 RMK AO2 PK WND 17029/1450 RAE1356 SLP049 P0000 60005 T01940172 53012
KOQN 
15nm NW 
201535Z AUTO 15009G15KT 10SM OVC008 18/17 A2967 RMK AO2
KLOM 
17nm N 
201535Z AUTO 18009G14KT 4SM OVC010 18/18 A2970 RMK AO1
KILG 
18nm SW 
201451Z 16017KT 10SM OVC006 18/17 A2967 RMK AO2 PK WND 16026/1358 SLP046 60005 T01830172 53015 $
KPNE 
19nm NE 
201454Z 16010G16KT 10SM OVC015 21/17 A2970 RMK AO2 RAE01 SLP055 P0000 60003 T02060167 51010
TAF
KPHL 
3nm E 
201234Z 2013/2118 16016G30KT 6SM -SHRA BR SCT010 OVC020 TEMPO 2013/2015 2SM SHRA BR OVC010 FM201500 17012KT P6SM VCSH BKN025 FM201800 17012G20KT P6SM BKN050 FM202000 18012G20KT P6SM BKN200 FM210200 16005KT P6SM SCT250
KILG 
18nm SW 
201402Z 2014/2112 15015G25KT P6SM VCSH BKN010 OVC040 FM201800 18012G20KT P6SM BKN040 FM202000 17012G20KT P6SM BKN200 FM210200 19008KT P6SM SCT250
KPNE 
19nm NE 
201411Z 2014/2112 17013G25KT 6SM SHRA BR SCT008 OVC045 FM201500 17012G20KT P6SM VCSH OVC045 FM201800 17010G18KT P6SM BKN040 FM202000 18012G20KT P6SM BKN200 FM210200 16005KT P6SM SCT250
NOTAMs
Click for the latest NOTAMs
NOTAMs are issued by the DoD/FAA and will open in a separate window not controlled by AirNav.

 

 
 

Would you like to see your business listed on this page?

 If your business provides an interesting product or service to pilots, flight crews, aircraft, or users of the Philadelphia Seaplane Base, you should consider listing it here.  To start the listing process, click on the button below
 
Add a business
 

Other Pages about Philadelphia Seaplane Base

Update a link
 
Copyright © AirNav, LLC. All rights reserved. Privacy Policy  Contact